Погода в Пылве

Эстония     58°03′25″N   27°04′01″E
темп.,
°C
ветер,
м/с
пор.,
м/с
влажн.,
%
обл.,
%
осадки,
мм/ч
давл.,
гПа
погр.,
м
16 сентября, чт
чт1600:00+7с1178100 0.0 102155
03:00+7з1181100 0.0 102133
06:00+7зсз1185100 0.1 102247
09:00+7всв2486100 0.1 1022318
12:00+9в236692 0.0 1022760
15:00+11в225593 0.0 10211286
18:00+10всв3461100 0.0 1020569
21:00+6всв2676100 0.0 1020141
17 сентября, пт
пт1700:00+5в2481100 0.0 102080
03:00+4в278594 0.0 1020150
06:00+3в398661 0.0 1020246
09:00+7в4107153 0.0 1020550
12:00+10в575345 0.0 10201154
15:00+12в574995 0.0 10201444
18:00+11в4855100 0.0 10201224
21:00+7в4116876 0.0 1022488
18 сентября, сб
сб1800:00+6всв4127690 0.0 1023475
03:00+3всв398841 0.0 1024256
06:00+3всв31188100 0.0 1024327
09:00+6в41169100 0.0 1025566
12:00+10в695098 0.0 10241148
15:00+12всв68457 0.0 10241408
18:00+11всв58545 0.0 10231213
21:00+6всв311725 0.0 1024339
19 сентября, вс
вс1900:00+6всв412814 0.0 1024475
03:00+4всв410860 0.0 1024381
06:00+3св411890 0.0 1025367
09:00+6всв511740 0.0 1025588
12:00+10всв68535 0.0 10251064
15:00+12всв684510 0.0 10241388
18:00+10всв595570 0.0 10251257
21:00+7всв5116777 0.0 1026669
20 сентября, пн
пн2000:00+5всв4117716 0.0 1026593
03:00+3св411846 0.0 1027384
06:00+3св411865 0.0 1027437
09:00+5всв512760 0.0 1028585
12:00+9всв68545 0.0 10271112
15:00+11св57465 0.0 10261412
18:00+9св47525 0.0 10261259
21:00+4св310683 0.0 1027327